GFSWCAN_sfc_rhum_057.txt.gz
RH
89 86 85 85 84 84 84 85 85 83 78 76 77 79 79 79 80 68 48 54 57 44 40 40 44 54 58 56 73 48 63 66 93 99 99 93 95 100 98 66 58 75 79 88 71 72 66 58 43 55 81 84 77 65
87 85 85 85 85 85 85 86 86 82 78 79 78 78 80 81 82 76 45 44 49 59 39 36 37 39 44 50 52 58 70 66 84 99 99 100 100 100 100 99 51 68 72 74 48 54 58 70 75 65 74 91 87 77
86 84 85 86 86 84 84 84 83 77 76 77 77 78 80 82 84 78 41 43 45 46 47 48 40 37 29 32 35 87 62 60 82 62 94 99 100 100 100 100 99 80 79 90 79 64 84 82 73 76 81 85 85 77
84 84 85 86 86 84 83 84 81 82 79 77 77 78 80 83 85 82 44 36 42 46 62 51 34 41 34 32 38 39 47 45 59 52 94 98 99 91 99 98 99 97 95 99 98 93 91 84 87 87 85 88 83 80
84 83 85 86 87 83 82 83 80 82 84 83 82 79 79 82 89 69 50 40 37 51 58 50 39 41 35 36 38 38 38 51 75 84 73 93 93 96 92 97 100 85 98 100 99 95 98 92 87 88 91 90 88 89
83 83 85 86 87 84 82 83 82 82 83 82 80 81 81 83 94 67 67 45 40 46 63 57 38 47 43 43 46 47 46 41 43 28 39 46 54 92 99 100 90 57 71 90 97 91 91 86 88 87 92 90 89 89
82 83 84 86 86 85 84 82 82 83 82 81 76 80 84 87 60 73 62 55 67 52 65 56 67 43 48 45 44 45 38 39 36 38 75 58 56 62 93 100 70 59 55 72 82 87 90 86 92 87 89 88 90 88
81 83 84 86 85 86 84 84 84 83 84 83 76 77 84 86 81 62 49 76 66 57 51 59 55 62 46 54 54 45 50 72 51 52 39 58 53 67 100 62 63 53 45 45 48 70 75 73 79 84 83 86 85 89
81 82 84 85 86 86 84 83 84 84 86 86 80 78 61 59 60 61 77 75 51 58 68 48 53 65 44 54 48 49 51 84 47 75 62 70 99 100 79 55 58 47 48 43 40 44 48 61 78 82 82 83 86 90
81 82 84 85 86 88 86 86 85 86 90 88 69 61 65 64 82 76 62 70 70 63 57 60 31 47 40 59 68 52 45 53 82 57 43 89 98 53 43 42 49 52 44 42 46 53 49 49 52 68 76 83 87 86
82 84 85 86 86 88 86 86 85 90 89 55 47 51 54 79 61 68 64 59 41 51 41 36 34 38 29 55 64 42 52 44 76 57 45 66 80 51 37 37 40 48 45 43 42 44 44 44 46 48 61 71 83 83
83 84 86 87 88 88 87 88 89 70 39 60 55 52 43 66 66 58 43 37 48 52 30 31 28 30 35 46 60 64 65 57 58 36 42 93 70 48 39 35 35 38 43 46 42 43 44 47 46 50 48 56 67 75
84 86 88 90 91 88 88 91 94 89 80 46 52 60 58 52 80 53 74 43 47 29 23 23 27 28 54 57 66 60 60 72 47 53 99 53 57 46 41 36 32 30 33 46 46 43 40 42 44 44 48 47 50 60
85 87 89 90 85 84 86 91 94 84 64 48 47 97 48 42 40 31 30 33 30 28 34 33 48 32 58 68 59 62 62 41 47 86 80 56 58 45 41 35 35 34 30 32 39 44 45 39 37 38 41 43 45 53
86 88 89 89 84 89 90 90 95 64 49 45 39 78 37 28 22 28 32 41 36 32 39 46 83 57 75 84 55 56 49 59 59 76 66 51 48 45 61 55 42 44 35 32 31 35 43 38 35 35 32 32 36 42
87 90 69 83 87 89 93 87 78 51 43 43 42 37 28 29 29 32 32 38 34 32 36 56 58 78 88 83 71 84 69 77 86 58 36 44 53 49 47 41 38 35 39 34 33 32 35 36 35 32 31 30 31 36
91 42 84 82 89 91 90 64 47 51 42 43 32 24 28 39 42 55 39 36 36 40 54 57 77 79 52 79 94 69 89 61 46 40 35 50 53 52 45 39 36 34 41 37 41 37 35 33 31 31 35 34 29 33
45 53 85 84 74 86 56 56 42 40 45 38 36 30 34 36 39 41 36 34 33 35 43 70 62 69 78 73 67 57 50 42 34 34 33 41 47 47 39 40 38 36 40 42 38 35 44 32 31 24 30 29 26 27
49 58 83 88 74 61 43 47 44 42 35 31 28 34 33 35 44 34 31 34 36 37 54 57 77 73 66 51 54 49 39 42 39 41 36 42 44 42 42 38 35 33 35 45 46 33 37 33 25 21 20 21 23 23
90 90 91 94 86 52 44 37 43 43 40 29 28 29 38 41 34 38 34 34 34 30 37 47 53 45 47 44 42 42 48 40 38 38 49 40 38 32 34 32 24 30 26 38 32 48 29 33 30 24 22 26 23 23
86 75 90 68 61 50 38 33 36 32 31 30 30 31 34 34 32 31 30 31 29 30 36 34 35 36 45 52 54 64 71 58 63 38 52 68 28 26 24 22 25 21 25 31 34 33 36 34 33 27 25 24 24 23
54 90 53 64 50 45 47 35 36 37 38 32 30 32 34 35 33 32 32 31 33 34 33 40 59 62 76 72 62 60 62 68 68 73 71 46 29 29 27 22 24 25 30 31 34 29 30 33 30 26 27 27 35 24
85 69 53 46 52 63 63 36 43 36 40 36 31 35 35 34 35 35 47 36 40 41 38 56 62 60 54 46 45 58 47 55 68 61 42 28 29 24 24 25 22 24 26 27 23 26 31 57 36 29 30 31 32 34
89 55 50 44 49 66 38 42 34 36 34 35 35 38 38 38 36 34 40 34 30 32 34 53 44 38 37 48 29 32 30 34 76 55 37 47 36 30 29 27 27 28 28 27 30 66 33 33 42 33 31 34 30 33
76 69 66 99 43 45 40 36 39 37 39 35 37 34 36 36 36 38 34 28 28 34 41 47 36 36 30 26 23 23 29 22 24 38 35 35 38 65 38 34 29 28 26 30 33 34 27 28 37 36 41 30 35 37
91 47 76 32 32 38 36 38 38 37 35 36 33 38 37 34 35 37 35 32 30 33 34 34 28 24 22 22 22 22 22 22 24 32 33 32 33 31 41 57 51 32 25 27 29 38 74 43 32 32 36 36 58 37
68 38 36 32 32 32 36 36 35 32 38 34 30 40 34 35 38 36 32 32 31 30 27 22 21 21 21 20 20 22 22 24 28 25 31 31 30 28 40 44 45 31 24 25 26 29 30 33 44 32 36 29 30 36
34 33 39 36 35 33 42 38 38 37 30 30 32 40 36 34 36 34 31 31 28 24 20 19 20 20 20 18 16 17 22 23 25 24 24 27 26 24 28 27 28 60 29 33 32 28 41 36 28 33 35 33 34 33
38 28 30 39 37 37 39 36 34 27 28 28 36 34 34 36 31 32 32 28 23 21 19 19 20 17 16 17 16 15 15 16 24 35 38 31 30 31 29 32 28 26 22 26 71 50 41 34 30 30 33 35 31 32
34 26 33 32 34 37 36 23 28 30 29 29 31 36 36 33 31 28 29 27 27 22 19 17 17 16 16 16 18 20 18 17 17 20 24 26 26 26 27 28 27 26 25 24 25 29 61 39 43 29 31 29 32 33
24 26 31 31 33 31 26 28 30 32 32 31 31 33 34 37 30 26 26 27 23 22 18 17 17 16 16 16 18 20 23 23 28 27 23 20 21 24 28 28 26 24 25 26 26 26 26 29 28 31 33 35 37 40
27 32 30 32 37 33 34 32 32 34 34 40 37 35 38 38 39 33 26 25 25 24 37 22 18 20 18 18 19 21 44 23 26 26 28 25 25 26 23 22 21 22 24 25 25 27 28 30 30 32 35 36 37 35
29 31 28 27 27 36 32 34 34 35 33 33 35 39 38 38 44 35 28 25 24 21 21 20 19 20 26 22 23 26 35 32 57 83 78 81 82 59 30 22 23 24 26 25 25 26 28 31 30 32 33 34 34 34

GFSWCAN_sfc_rhum_060.txt.gz
RH
91 89 85 84 84 86 85 86 85 82 77 76 75 76 77 77 79 66 42 48 49 51 37 34 35 43 47 48 62 46 56 58 60 88 87 84 90 98 96 60 58 70 82 90 73 70 76 46 43 49 64 56 52 58
91 87 84 84 84 86 85 85 84 80 75 77 76 75 77 78 80 76 52 39 45 45 41 35 33 33 37 39 42 43 62 57 57 91 96 93 100 97 100 100 63 92 98 93 62 52 73 67 66 57 56 61 58 59
89 86 84 84 84 86 84 85 81 78 75 75 76 75 78 80 81 78 47 43 41 48 51 47 44 34 24 26 27 48 58 51 71 51 69 96 100 100 100 100 97 63 64 73 79 61 82 67 61 64 65 67 64 66
88 84 83 84 83 85 84 82 80 80 79 77 76 75 77 80 84 83 50 46 43 53 59 43 30 39 29 27 31 32 37 46 51 58 60 87 99 92 99 97 95 74 79 90 94 87 86 75 78 81 78 71 70 78
86 84 82 83 83 84 83 82 81 81 81 82 81 79 77 79 86 70 49 44 51 54 58 44 32 31 30 32 33 32 41 51 78 84 77 81 79 92 91 98 99 72 91 100 99 94 98 94 88 86 85 87 88 92
84 83 81 83 84 84 84 82 81 82 82 82 80 82 80 81 87 60 64 45 44 50 68 52 37 38 34 35 38 40 54 48 49 51 46 40 47 68 95 100 75 70 72 88 96 92 94 90 88 86 89 90 88 90
83 82 81 82 83 83 84 83 82 82 82 82 79 78 83 86 62 59 67 59 68 53 68 54 52 40 36 40 48 48 54 47 48 56 71 57 60 54 88 100 74 52 54 74 73 78 90 88 93 88 89 87 89 88
82 80 80 81 82 82 84 83 83 82 83 83 82 76 82 85 82 62 49 79 66 60 55 54 47 65 41 56 69 38 50 67 47 63 50 49 47 72 100 77 80 57 41 49 52 65 69 78 82 87 86 87 87 88
81 80 80 81 83 84 84 84 82 82 83 85 84 78 63 69 62 58 74 73 55 58 68 42 45 64 39 46 48 48 42 82 48 68 64 64 100 100 82 50 69 65 52 41 41 42 49 63 76 84 84 86 88 89
80 79 80 82 84 85 84 84 84 82 85 88 72 60 70 57 84 71 65 68 69 62 56 57 30 44 43 64 68 60 58 56 80 57 36 90 98 59 52 44 47 48 50 43 44 52 50 48 59 79 83 88 93 93
78 80 82 83 85 85 84 84 84 86 91 60 57 68 52 82 53 64 64 60 56 58 45 40 34 39 28 69 73 48 62 68 84 57 48 77 82 56 39 45 44 52 54 50 50 53 47 48 48 56 69 80 86 90
79 80 83 86 87 87 86 87 87 74 46 63 60 46 42 54 61 63 60 45 43 52 41 48 55 44 53 65 67 58 68 72 75 49 48 91 62 49 41 34 40 42 45 53 46 46 44 44 44 49 56 64 68 76
81 83 85 87 90 86 88 90 92 90 75 45 56 57 57 53 83 58 70 68 85 88 56 41 52 72 89 74 80 67 82 96 82 58 100 60 75 70 42 36 31 34 38 40 45 43 42 43 41 40 48 50 51 52
83 84 85 86 85 81 85 91 92 83 68 52 60 97 47 48 45 56 45 48 87 85 45 37 53 56 48 78 96 84 79 80 78 87 86 97 82 85 44 39 38 36 37 41 44 41 41 38 40 35 35 48 44 50
83 85 87 84 85 84 87 89 92 66 53 45 44 76 38 31 35 36 52 69 48 41 34 36 35 46 77 87 82 78 64 60 80 98 85 92 83 63 59 51 48 44 37 35 33 40 40 36 34 35 33 33 37 52
86 86 68 82 78 82 90 89 75 54 43 39 38 35 31 39 44 33 66 85 31 35 34 34 47 57 62 61 69 66 65 86 82 52 45 67 73 54 50 41 38 34 39 46 40 38 36 34 33 32 30 31 32 35
89 45 86 79 86 88 88 68 51 49 42 38 40 34 68 56 88 56 41 31 27 30 36 50 64 64 57 64 65 65 70 72 66 53 39 50 53 53 46 42 37 36 38 49 48 45 44 33 30 34 34 36 35 37
47 64 82 82 71 77 54 59 42 37 44 40 52 39 30 40 44 34 29 30 30 32 38 50 49 54 61 69 74 66 59 47 40 39 38 44 46 47 41 42 40 38 37 48 78 55 48 37 40 32 32 31 29 40
49 56 82 85 77 68 46 46 40 45 43 61 40 29 35 40 37 33 33 33 33 36 40 46 51 59 55 52 62 45 43 42 43 40 42 47 75 56 43 40 37 38 38 47 42 68 71 41 28 23 21 22 27 25
88 89 89 89 86 58 45 39 38 41 40 34 53 31 31 34 50 33 35 38 34 30 35 44 58 52 47 49 45 53 72 50 52 71 78 52 46 46 43 37 30 34 27 36 52 82 37 37 26 29 23 26 25 28
77 72 91 73 65 52 40 33 56 46 38 29 46 89 32 40 37 35 33 25 29 33 38 37 42 44 50 53 62 56 70 74 84 83 70 65 48 32 35 27 32 37 78 63 80 49 61 41 31 31 37 34 23 24
57 89 51 66 50 42 41 34 36 55 40 67 79 53 64 34 34 34 53 38 35 32 38 41 42 43 44 60 87 70 69 68 62 79 90 59 37 32 29 27 23 25 33 56 81 77 60 34 36 52 67 30 33 28
81 62 52 43 45 58 64 35 40 37 39 40 62 38 37 30 38 47 38 30 34 34 39 42 48 56 65 52 48 46 49 46 58 64 66 71 41 40 76 49 25 27 31 35 40 55 61 76 38 27 35 36 42 39
85 49 45 40 45 71 44 45 36 34 63 85 38 39 34 34 53 39 30 28 30 27 32 50 37 35 32 42 29 32 29 24 38 52 58 50 42 44 47 58 30 25 25 27 46 52 78 90 47 34 36 30 34 34
70 71 65 99 49 48 48 41 51 41 40 52 35 34 30 30 34 32 30 26 24 27 30 33 29 24 24 23 20 22 29 21 22 37 38 35 39 41 44 38 35 24 23 26 34 62 85 86 48 37 37 27 31 35
92 47 76 35 32 38 63 48 78 61 30 31 38 53 31 35 35 37 32 29 27 26 27 24 22 20 21 20 22 23 24 22 30 32 31 26 26 31 36 39 36 32 23 25 35 48 52 56 80 35 31 38 62 41
72 37 33 28 31 30 37 68 29 26 31 34 35 42 32 40 38 39 31 30 30 25 22 20 19 19 18 18 20 24 23 24 30 29 25 24 25 26 30 38 35 31 27 27 44 68 58 54 39 35 35 32 32 38
37 31 37 32 30 29 35 37 29 34 39 60 40 68 70 31 34 32 31 30 26 20 19 18 19 18 17 16 14 15 20 22 24 24 22 22 22 23 27 24 24 57 30 33 34 38 39 41 38 30 31 32 34 30
37 28 28 38 34 38 36 35 36 55 35 21 54 57 34 34 30 30 30 27 23 18 17 17 18 16 15 15 15 14 14 15 24 32 33 27 27 26 24 24 25 24 22 24 68 45 34 28 27 28 30 31 30 32
29 23 27 29 37 76 87 88 61 29 19 21 24 32 32 30 28 27 27 27 27 23 18 15 14 14 14 15 18 19 16 16 17 19 23 26 26 23 24 24 24 22 22 24 25 28 56 39 42 30 32 32 33 40
22 23 25 27 35 56 75 70 32 22 24 23 24 27 32 35 32 28 27 28 25 22 16 15 14 13 14 14 17 20 22 23 26 24 21 19 21 24 24 25 23 23 24 24 24 25 28 28 28 31 32 35 34 37
22 27 28 38 74 81 50 26 26 28 50 34 30 29 32 36 39 34 27 27 26 25 35 22 16 17 15 15 17 21 40 23 26 29 30 24 24 25 23 21 20 21 23 23 24 24 26 28 30 29 31 34 32 33
23 25 26 36 81 63 47 33 26 28 24 28 33 36 31 34 44 38 29 27 25 22 21 18 16 17 23 20 22 25 36 36 55 81 77 78 79 56 28 22 23 23 24 24 23 24 26 29 28 31 32 33 33 34

GFSWCAN_sfc_rhum_063.txt.gz
RH
96 90 87 84 84 84 86 86 86 84 80 79 78 78 81 83 85 76 66 65 68 67 53 41 36 56 58 59 67 58 66 66 67 94 87 95 96 98 94 78 80 92 99 98 91 91 87 75 61 80 84 72 67 66
96 90 84 82 84 84 86 86 85 82 78 77 77 78 79 84 85 84 67 56 65 70 55 45 39 40 45 48 58 57 68 61 72 98 95 98 99 95 100 96 70 92 98 100 99 97 91 74 77 73 73 78 77 80
97 89 83 81 83 84 86 84 84 80 79 76 75 76 78 82 85 83 68 65 66 61 52 52 48 40 32 31 34 66 65 63 73 65 73 93 99 100 96 92 90 73 67 84 83 78 89 82 75 74 74 77 68 73
95 87 81 80 83 83 84 83 82 81 81 81 80 79 80 82 86 84 69 57 65 66 71 53 33 44 36 32 35 40 49 57 59 71 85 79 98 91 98 93 94 84 80 88 90 79 82 78 86 84 84 76 71 72
93 85 80 80 82 82 83 83 82 82 82 82 84 83 83 83 85 79 66 61 62 70 74 63 45 37 36 41 39 38 50 60 93 88 89 94 80 88 92 97 98 83 89 99 98 85 97 96 88 86 89 85 83 88
92 83 79 80 82 83 83 84 81 82 83 83 85 84 85 85 84 70 77 62 53 65 78 69 46 47 39 43 45 51 54 59 69 90 78 64 65 82 99 100 81 75 78 87 92 87 92 90 88 85 91 88 84 88
88 81 79 79 81 83 83 85 83 82 83 85 87 84 84 86 77 71 76 73 81 72 79 72 65 46 43 46 48 53 55 65 67 75 89 76 76 76 99 100 87 74 69 84 82 83 90 84 88 84 87 85 87 87
84 79 78 79 80 83 83 84 83 81 83 85 87 86 83 84 86 76 62 78 72 74 73 78 60 76 45 61 86 62 76 76 67 80 71 83 82 89 100 89 87 78 70 70 82 76 77 81 84 85 85 88 87 88
82 79 79 78 80 82 84 84 83 82 82 84 87 87 74 79 69 68 78 75 71 76 80 66 70 73 52 59 81 78 68 95 84 90 89 88 100 96 82 78 87 75 69 59 55 58 71 70 83 83 82 83 88 92
80 78 78 79 80 83 84 84 81 81 81 87 83 74 79 64 84 76 74 81 88 79 75 82 56 62 72 92 94 95 79 72 95 77 78 99 100 80 77 70 75 72 68 59 63 70 68 68 79 82 86 87 89 93
78 77 78 81 84 85 85 84 84 84 91 74 72 70 71 83 66 79 78 80 82 86 88 88 93 88 69 94 96 97 93 87 95 88 78 90 97 75 68 66 68 71 66 60 62 60 58 58 63 81 78 83 86 88
77 78 80 83 86 91 90 88 88 87 65 80 75 68 59 75 74 78 82 89 93 91 91 95 90 67 76 90 94 93 95 94 97 96 93 99 87 69 64 59 64 70 65 62 60 61 60 60 55 57 75 77 78 83
77 79 82 84 86 85 85 91 90 89 82 61 72 70 62 73 91 76 92 87 97 91 92 93 92 76 78 88 95 92 88 94 94 94 100 99 97 86 75 65 55 56 57 62 64 60 56 58 58 61 69 65 70 66
80 82 83 83 80 82 83 90 91 85 83 68 67 99 70 70 71 90 95 91 92 96 88 88 90 87 90 89 92 83 84 82 91 92 99 97 95 95 90 78 56 59 56 54 59 58 60 63 61 58 62 63 64 63
82 83 86 83 83 84 83 88 92 79 69 62 56 87 50 76 87 92 95 91 87 87 86 70 54 64 73 83 82 78 74 92 94 97 93 96 93 93 89 76 60 57 53 60 70 75 54 55 52 51 53 60 64 64
84 85 73 85 85 79 86 88 84 68 60 53 50 47 44 61 80 78 76 46 36 37 45 47 56 60 70 78 69 70 70 84 87 81 66 90 85 80 71 65 60 55 59 67 78 87 75 62 55 46 45 51 49 55
87 57 85 82 80 86 88 78 65 65 53 48 50 47 63 67 80 68 48 41 42 40 49 55 64 64 73 66 75 80 84 80 76 66 62 69 76 70 67 66 63 54 60 68 70 68 63 58 52 50 52 60 53 59
69 74 80 80 76 75 65 74 60 45 50 50 68 62 56 72 52 49 50 46 50 49 55 56 56 54 67 66 82 83 73 61 62 66 67 72 76 79 71 70 62 62 61 75 74 64 66 70 60 55 50 49 51 61
56 62 80 83 79 75 64 60 54 52 47 61 60 72 79 76 77 76 55 59 62 58 57 61 61 77 68 72 81 74 64 79 86 84 91 86 87 88 84 82 63 62 65 71 85 83 84 63 63 46 42 47 44 45
86 87 87 86 86 70 62 52 55 52 48 52 70 93 95 67 74 60 47 46 53 51 54 57 70 67 78 86 88 88 86 89 90 89 89 87 96 92 82 78 66 68 77 86 94 92 92 73 50 46 49 52 42 47
69 81 90 82 76 66 55 52 60 58 66 80 88 84 80 60 50 50 53 47 46 51 52 53 54 59 69 78 80 76 85 89 90 88 90 92 77 53 61 67 90 68 81 94 94 91 88 82 65 75 60 53 44 50
66 92 68 81 64 56 58 49 47 62 58 84 93 76 76 60 52 50 54 51 48 50 55 59 66 64 66 72 78 78 81 78 78 81 95 85 79 77 61 80 88 92 67 68 81 93 93 95 85 57 56 52 53 47
78 72 56 56 65 71 78 48 59 52 89 89 71 70 52 53 54 51 52 49 51 58 61 64 64 70 73 70 74 73 68 68 68 61 66 71 66 59 52 52 46 45 51 69 75 92 90 83 69 61 51 52 57 60
82 54 60 62 54 73 46 51 68 87 67 77 67 54 51 54 54 54 40 42 46 51 58 65 60 56 54 58 48 49 49 44 53 57 60 66 85 59 57 49 51 49 48 54 59 67 76 84 85 50 46 47 46 49
77 80 75 100 54 52 49 64 84 60 60 57 62 75 55 54 54 43 42 43 43 44 50 53 46 40 35 36 34 37 49 40 43 44 49 47 50 49 50 49 46 37 53 64 71 74 87 85 83 68 38 43 47 48
94 60 82 42 38 42 47 66 72 63 49 50 56 70 59 56 48 42 47 49 44 42 42 40 37 32 33 37 36 35 37 36 40 36 38 32 36 42 49 44 41 45 50 58 63 58 70 66 59 42 42 50 66 47
80 45 43 42 38 48 92 87 72 75 62 53 73 75 69 59 40 48 48 45 38 37 41 36 33 26 30 34 36 39 34 37 44 39 40 37 33 37 40 40 42 48 48 44 56 56 54 49 47 45 44 44 48 53
41 39 42 44 37 35 66 52 55 67 51 46 51 65 61 46 46 50 43 39 33 34 28 27 28 22 23 26 23 29 30 30 35 29 29 30 32 30 36 33 41 56 45 49 41 43 46 46 44 39 42 47 49 45
40 32 34 42 37 50 73 54 69 81 83 58 67 51 52 48 40 38 40 35 27 25 27 27 27 22 22 24 27 24 22 24 35 42 39 36 34 34 36 34 36 37 31 34 60 47 42 38 39 41 42 47 50 52
32 25 32 33 40 78 89 76 62 58 47 61 39 44 42 40 36 33 33 38 39 33 26 23 22 22 20 21 23 25 22 21 22 27 33 35 32 28 35 36 36 33 35 34 33 37 59 47 50 43 42 45 48 52
22 26 33 38 72 85 84 63 46 49 63 81 79 48 45 47 44 38 36 42 40 27 24 22 18 20 20 20 26 27 29 31 34 34 30 26 27 34 36 39 36 37 38 35 35 35 35 37 40 42 42 44 44 43
25 33 33 42 58 66 55 52 49 62 90 78 87 72 45 66 56 51 46 45 41 34 44 30 20 21 20 22 27 29 41 35 40 41 43 35 36 39 38 33 31 30 34 32 32 33 34 36 38 39 40 42 45 44
28 26 32 53 60 56 58 62 64 50 58 91 87 62 50 47 54 46 47 44 39 28 27 24 22 25 35 29 39 43 46 44 62 79 75 74 71 54 36 35 35 32 32 33 31 31 34 36 38 41 42 44 44 44

GFSWCAN_sfc_rhum_069.txt.gz
RH
97 98 98 94 85 80 84 87 88 88 86 84 82 84 84 85 87 87 88 92 86 94 87 60 54 68 75 82 86 76 80 78 92 94 97 98 97 98 96 90 91 92 96 99 93 96 95 78 74 87 90 92 91 90
98 98 98 94 83 79 83 87 88 89 87 86 84 87 88 88 88 83 85 80 90 92 74 70 57 47 49 57 76 86 72 85 90 98 98 99 92 89 98 98 87 97 94 96 95 92 90 85 80 78 88 94 94 92
98 98 97 92 80 78 83 86 87 87 87 86 86 85 88 87 88 87 94 97 96 96 87 82 70 62 55 53 57 76 90 80 88 85 98 97 99 97 96 96 91 88 93 95 89 77 89 86 81 89 91 94 91 90
97 98 96 88 78 79 83 86 87 85 88 86 86 87 88 88 87 85 95 97 97 97 96 82 62 73 52 54 54 59 70 86 87 90 97 99 99 92 98 91 94 91 90 89 93 84 84 86 89 88 90 90 80 69
97 97 94 84 76 79 82 85 88 85 86 87 88 88 90 88 87 93 98 97 95 90 96 96 87 75 65 57 51 68 70 84 95 96 97 95 96 98 94 91 93 93 93 96 95 81 82 81 82 86 93 88 84 86
97 97 93 80 77 79 82 84 87 87 82 87 88 88 89 86 86 96 88 89 91 95 86 98 85 80 78 54 59 68 67 89 94 96 97 96 74 82 100 99 82 88 90 84 78 81 88 83 85 87 92 86 84 84
98 97 88 78 76 78 82 84 86 87 83 83 89 90 90 85 96 92 91 88 92 79 92 98 96 74 64 65 68 66 63 73 80 95 98 95 90 75 99 98 80 83 79 89 85 88 90 90 92 85 88 84 83 82
98 94 84 77 77 78 81 83 86 88 82 81 87 91 91 90 89 93 91 87 86 85 84 92 95 90 76 87 89 94 88 83 88 94 88 93 90 94 100 91 86 78 85 86 87 86 83 85 89 90 91 88 89 88
98 92 82 76 78 77 80 82 87 87 84 84 88 92 96 96 97 94 81 81 76 78 94 93 98 89 88 98 97 98 98 100 96 100 99 98 100 100 88 79 88 82 88 86 85 86 90 94 92 92 93 92 94 89
98 91 78 76 78 79 83 84 87 86 86 90 95 97 96 97 80 80 91 92 94 94 92 100 96 94 83 97 99 99 98 97 100 99 99 100 100 92 92 82 64 78 81 77 83 86 87 86 88 87 87 92 93 90
92 81 74 79 79 82 85 91 89 86 91 98 97 96 97 86 94 96 95 97 98 96 98 98 97 97 94 97 99 98 98 98 100 95 96 100 100 96 95 89 66 76 76 70 66 66 69 72 71 75 81 89 92 92
82 74 77 80 81 83 90 86 91 93 98 97 96 95 90 92 96 95 98 98 97 92 94 99 95 98 98 98 97 96 95 96 94 95 95 100 97 95 93 87 84 74 72 69 65 64 65 63 66 74 78 81 88 90
74 75 79 80 81 83 88 86 88 92 94 97 96 89 90 91 99 99 91 91 98 94 95 97 96 98 98 97 97 96 89 96 97 92 99 97 93 94 93 93 88 79 73 73 72 70 74 71 70 72 73 77 79 84
76 77 80 81 81 82 90 92 92 94 96 93 95 99 97 93 91 91 93 91 91 94 96 98 98 98 98 94 97 88 98 94 86 95 94 95 91 90 89 93 91 85 73 72 79 84 86 80 80 76 70 75 71 81
78 80 83 85 86 84 86 91 92 96 95 94 94 97 93 79 90 92 94 94 94 96 98 98 97 95 95 90 96 88 91 85 86 92 93 95 89 91 93 93 92 90 83 85 84 91 87 82 83 78 73 70 70 76
81 81 83 85 86 85 85 93 96 98 97 96 92 81 85 85 91 93 95 95 92 76 92 84 83 82 85 90 82 87 85 90 87 95 91 93 90 92 91 90 91 90 86 89 91 93 88 85 87 87 76 69 74 74
83 84 87 79 79 89 90 97 98 97 96 88 81 87 92 94 94 94 93 84 75 65 72 82 73 80 85 84 86 89 87 86 83 76 76 88 92 91 93 94 90 86 84 88 92 95 95 91 89 92 76 70 79 80
87 90 80 80 79 91 97 98 98 95 94 89 79 90 97 96 91 89 81 80 71 77 75 72 77 76 80 82 87 91 94 94 92 95 96 94 92 93 94 90 92 87 90 93 94 93 93 93 84 85 70 83 87 87
73 79 79 81 75 82 97 96 95 86 82 92 92 97 97 96 96 93 90 86 81 83 76 82 76 85 86 91 90 93 95 96 94 94 96 94 92 92 91 92 94 93 96 98 98 98 97 92 90 84 76 91 89 92
88 90 90 89 83 86 89 94 91 91 90 94 97 95 95 94 93 92 86 88 79 73 71 76 83 87 92 92 95 95 96 95 95 94 94 96 97 93 94 92 92 95 96 96 97 95 95 92 92 82 72 84 82 88
86 93 91 94 99 98 96 94 84 92 94 93 96 95 93 95 91 81 73 78 64 68 72 79 82 80 91 92 94 95 94 96 95 95 94 93 96 96 98 98 96 96 96 97 96 96 94 94 95 94 82 69 82 83
80 93 99 96 98 96 98 94 81 88 93 94 95 95 92 91 89 84 79 66 65 64 74 82 84 78 92 88 83 84 89 92 92 92 90 89 89 92 95 95 94 93 97 97 98 98 98 96 86 87 76 71 90 91
86 96 95 96 98 99 92 92 82 89 86 87 95 92 92 91 84 78 70 77 72 76 79 82 82 86 89 83 76 92 92 87 88 87 89 89 90 84 84 89 93 87 94 97 96 97 95 91 91 89 78 71 76 84
87 86 90 95 98 96 78 84 94 94 95 92 90 83 85 81 83 74 70 71 74 86 74 76 61 59 62 70 85 88 88 92 95 93 93 83 86 85 84 80 89 96 96 96 96 96 96 95 90 86 68 68 75 80
92 84 98 100 92 91 78 87 95 88 80 85 82 89 86 86 78 80 66 62 89 83 79 74 65 62 69 79 86 84 75 85 87 86 91 86 84 83 87 93 94 94 94 90 91 87 90 85 76 71 77 81 79 82
97 85 88 82 73 72 77 88 89 85 83 79 89 92 90 84 71 63 64 69 71 67 64 58 59 64 69 68 73 66 58 69 75 73 72 74 70 75 81 84 86 83 89 91 85 76 72 71 68 67 72 76 81 74
97 86 82 83 72 84 91 95 89 82 79 80 89 88 85 73 68 65 72 62 52 58 57 55 48 46 51 62 65 60 59 56 54 56 64 69 67 66 68 74 78 78 80 74 74 69 63 62 65 66 69 71 69 67
83 76 78 69 79 79 74 90 88 88 83 92 89 81 75 69 67 73 62 52 48 50 47 49 50 47 51 56 59 58 59 61 58 56 53 54 60 63 68 69 75 74 66 70 63 58 59 62 61 62 62 62 65 67
82 79 70 68 63 79 86 86 87 90 88 92 88 91 83 84 75 56 52 46 45 37 40 40 43 45 47 54 63 60 52 44 44 47 47 53 56 50 60 61 55 54 52 46 61 57 58 62 62 63 63 67 68 65
65 70 61 53 55 72 82 91 87 92 92 89 90 91 90 74 68 56 47 44 44 38 34 33 37 36 40 45 53 61 61 49 38 40 50 54 52 49 55 53 52 50 51 48 47 49 64 59 65 62 62 64 70 64
55 59 51 48 50 74 89 92 89 94 91 91 93 90 82 77 64 64 47 42 42 48 47 46 42 37 36 47 50 54 59 65 60 46 47 48 50 56 55 54 53 52 49 48 52 54 56 60 58 57 54 56 58 62
56 49 48 45 79 89 89 87 79 86 95 92 89 93 87 86 73 66 66 53 47 42 47 41 35 35 37 42 51 54 61 61 56 45 47 54 57 57 54 54 54 55 54 51 54 54 54 56 59 56 53 54 56 57
54 54 72 83 87 85 90 88 84 92 94 95 96 92 87 85 73 76 67 51 36 29 34 34 45 54 49 49 58 65 68 67 68 71 69 68 68 66 62 60 54 49 48 52 51 52 47 49 53 55 56 56 56 56

GFSWCAN_sfc_rhum_072.txt.gz
RH
97 97 98 98 94 86 80 84 87 88 87 86 84 85 83 84 88 86 92 94 85 91 84 67 58 71 82 85 86 79 79 75 89 94 97 99 97 99 97 89 93 88 95 99 95 95 91 78 72 78 86 93 86 86
96 97 98 98 91 82 80 84 87 88 88 86 85 86 87 87 88 79 84 84 94 92 74 82 64 55 51 56 78 88 75 85 85 98 99 98 97 96 98 92 84 93 91 96 92 91 87 84 78 78 86 92 93 92
97 97 98 96 90 78 80 83 86 88 88 87 86 86 87 88 88 85 94 97 96 96 86 84 74 73 60 56 59 75 93 84 91 86 97 98 98 97 100 98 90 89 92 94 83 74 86 86 82 84 86 90 89 90
97 97 98 94 85 77 79 83 86 86 87 88 87 87 88 88 87 85 95 97 97 97 95 76 67 77 61 59 59 60 75 90 91 93 97 98 97 92 98 91 95 89 94 93 91 83 84 79 84 85 86 86 86 81
97 97 97 94 82 75 79 82 85 87 84 87 88 88 89 88 88 93 98 97 97 91 96 95 87 79 79 59 60 72 72 88 96 96 97 96 97 97 98 94 97 94 92 95 93 79 80 74 82 83 87 89 87 83
97 98 97 93 79 75 79 82 84 86 86 84 88 89 90 87 85 96 96 95 94 96 95 98 88 84 74 67 67 74 68 77 83 96 96 94 87 88 99 99 85 88 89 84 74 77 80 76 79 82 86 85 81 83
97 98 97 92 76 75 79 82 84 87 86 81 86 90 90 90 96 90 89 86 94 83 85 96 95 72 71 71 77 79 68 77 78 94 98 94 93 87 99 98 75 77 76 88 80 85 87 87 84 80 87 81 82 84
97 99 97 87 75 75 78 81 84 87 84 80 84 91 91 90 90 94 93 90 88 88 86 94 94 90 80 87 87 93 91 92 92 96 99 98 99 98 100 87 87 76 80 86 86 82 80 81 86 87 88 89 92 93
97 98 93 88 75 73 79 82 84 87 83 83 87 91 95 96 96 94 81 86 78 78 92 96 97 90 90 97 98 99 98 100 99 99 99 97 100 100 95 95 93 90 82 77 81 86 89 89 87 87 89 90 95 93
98 98 95 85 74 74 81 83 85 86 86 90 95 96 96 96 82 83 93 94 94 87 93 99 97 96 88 97 99 98 99 99 99 98 97 100 100 94 94 95 96 89 78 77 84 91 91 90 88 84 81 84 89 89
98 96 92 78 75 78 83 89 89 85 88 98 96 96 97 87 96 97 96 97 98 94 98 99 97 96 96 98 97 98 98 97 100 98 93 99 99 94 90 93 90 90 84 77 71 67 66 69 71 74 74 78 88 91
95 89 76 74 77 80 88 87 88 92 98 96 96 96 96 96 96 94 96 97 95 91 94 98 97 97 98 98 98 97 95 97 95 94 94 99 96 90 95 87 90 83 76 74 72 69 66 68 71 72 75 76 80 85
84 74 74 75 78 83 88 86 90 92 93 97 94 86 96 96 98 99 91 90 94 93 94 96 94 98 98 95 97 95 82 95 96 89 92 95 92 92 92 90 87 82 73 77 81 76 71 68 71 74 75 77 78 81
73 73 76 79 79 81 90 90 91 94 95 88 95 100 97 95 95 89 91 89 90 93 96 98 98 97 98 95 97 90 95 92 86 94 92 92 86 88 90 88 89 83 85 80 78 85 83 86 88 82 80 76 76 79
78 79 83 85 85 83 89 92 92 94 94 90 95 97 98 89 89 92 94 95 94 97 98 98 96 96 96 92 96 89 94 86 89 88 90 93 86 89 90 88 90 88 87 88 88 88 88 87 92 87 77 72 74 76
80 82 85 86 85 85 90 94 96 98 97 95 96 86 84 93 87 93 95 96 96 93 94 87 86 80 86 90 82 84 86 85 85 91 84 92 90 90 91 89 87 90 90 87 86 90 92 86 82 82 78 74 73 75
82 83 86 79 82 90 92 96 97 97 95 95 97 94 91 94 93 92 95 94 83 68 72 82 73 80 88 84 85 91 85 84 84 77 91 92 93 95 94 93 89 88 90 88 88 90 88 88 89 84 85 80 68 78
88 89 81 78 80 93 98 98 97 88 97 96 93 90 96 96 94 93 94 90 75 79 78 71 79 76 79 80 83 90 92 93 94 95 95 95 95 95 95 96 92 91 94 92 92 93 94 89 88 96 94 86 84 89
74 81 80 81 77 80 96 98 96 88 88 94 96 97 96 96 97 92 94 94 87 85 81 82 74 83 84 90 88 91 95 97 95 93 96 94 96 96 96 95 94 94 94 97 98 99 99 97 94 92 92 83 96 86
87 92 92 91 80 82 82 95 95 94 92 93 97 96 96 94 94 95 94 93 84 78 73 77 81 84 90 92 95 94 94 96 95 94 92 94 97 94 96 95 90 93 96 94 96 94 97 95 94 82 87 96 93 86
86 91 90 93 98 96 98 96 96 97 96 96 96 96 92 96 95 86 78 82 71 70 67 74 76 79 88 92 94 93 94 96 96 95 91 91 94 95 96 94 96 96 99 99 99 97 95 97 97 94 88 88 82 85
82 92 97 92 98 98 98 97 88 88 96 95 96 96 91 92 92 90 88 69 65 62 72 73 81 77 88 90 91 90 90 93 94 95 91 87 79 82 81 93 93 96 98 97 97 96 97 96 84 85 76 82 90 91
87 98 99 99 98 99 95 97 88 90 89 88 95 92 93 92 90 89 74 74 70 76 77 77 84 84 90 85 89 95 91 87 88 91 89 84 82 82 81 84 90 88 92 93 93 96 95 92 90 84 77 75 84 86
86 92 95 97 96 97 88 89 96 95 96 94 94 86 88 87 85 76 70 73 75 92 82 86 76 70 80 86 91 90 89 88 91 93 89 80 82 76 82 86 89 91 92 91 89 90 92 92 90 79 70 72 70 69
95 85 99 100 96 98 90 89 94 95 83 84 89 87 88 93 82 81 76 65 88 84 84 71 66 65 72 86 89 88 86 84 78 80 89 82 80 81 81 81 83 90 88 78 79 77 82 84 75 68 70 73 76 74
98 87 96 88 82 82 80 87 91 88 88 83 90 92 94 88 81 71 68 68 81 79 77 61 66 70 77 81 80 73 68 81 80 71 74 75 71 66 72 75 76 74 79 80 70 65 70 73 70 67 67 72 80 69
98 88 86 89 81 88 89 94 94 85 77 81 89 89 88 81 72 69 76 72 61 63 66 61 59 60 67 76 73 62 66 78 65 60 65 70 70 70 69 70 73 72 74 71 70 63 63 62 63 63 63 63 62 60
87 86 86 77 86 86 77 87 87 88 86 91 92 84 77 70 70 71 64 57 54 59 56 59 59 58 64 65 60 61 62 64 61 60 57 56 59 60 66 67 70 79 68 66 59 60 58 60 60 59 56 57 59 62
82 86 80 75 68 73 88 85 89 94 91 91 85 86 80 85 82 68 62 51 50 44 47 48 50 56 63 67 64 60 58 51 49 52 51 51 52 47 59 62 53 52 49 45 64 67 60 59 57 56 56 59 60 57
63 76 70 61 59 64 79 91 86 94 95 92 88 91 92 84 79 62 51 44 42 38 36 38 42 44 49 55 59 61 60 53 42 41 45 48 46 44 51 54 49 48 50 47 47 49 66 60 63 58 57 58 57 55
64 72 62 54 47 62 84 94 92 92 93 91 94 89 84 85 70 68 50 42 42 45 38 38 40 40 42 50 53 53 55 53 58 49 45 44 45 48 50 52 50 48 48 46 47 48 49 52 53 50 49 49 51 57
72 64 61 55 63 91 90 87 85 86 92 91 87 92 86 85 72 71 79 54 50 46 49 37 31 31 33 40 48 52 58 42 47 51 51 50 49 51 53 52 50 49 48 45 48 48 49 51 53 52 50 49 50 50
63 60 63 80 92 86 90 88 87 90 96 96 93 92 89 85 78 79 69 66 60 35 37 38 36 38 38 43 47 51 62 56 64 67 65 64 65 62 54 52 52 51 50 51 49 48 48 50 50 53 53 53 53 53

GFSWCAN_sfc_rhum_075.txt.gz
RH
96 96 96 97 97 91 84 80 84 87 87 86 85 85 84 84 88 68 66 75 61 57 52 48 44 56 59 51 54 59 57 51 46 80 79 87 88 97 87 60 58 63 76 83 74 70 66 58 57 60 65 63 58 58
96 96 96 98 96 88 80 81 85 88 88 86 86 86 86 88 89 72 56 66 76 61 51 60 46 41 39 39 49 62 52 58 46 86 87 88 99 94 91 88 62 77 67 81 69 62 65 60 55 57 58 58 64 64
96 96 96 97 94 86 78 81 84 87 86 87 86 86 87 88 88 77 66 76 66 62 52 52 51 49 45 37 34 46 55 56 62 52 57 76 100 89 97 96 74 66 65 62 62 53 64 64 56 56 60 60 62 60
96 96 97 98 92 81 77 81 83 86 85 87 87 87 88 88 87 81 70 74 69 70 66 46 49 53 48 40 40 40 52 58 54 51 55 59 79 72 84 76 75 59 69 70 70 61 62 62 57 56 63 64 62 60
96 96 97 97 93 79 76 80 83 84 85 84 88 88 88 87 86 83 80 74 74 66 68 59 53 53 53 45 46 49 49 54 75 74 64 70 60 77 74 77 86 62 75 85 72 56 55 54 60 62 64 65 62 63
96 96 97 97 92 81 76 80 82 84 86 81 86 89 89 88 84 72 70 67 70 68 65 71 57 59 56 51 54 56 54 62 60 71 67 61 61 61 98 100 62 60 58 56 49 57 54 55 59 61 62 61 59 61
96 96 98 96 91 81 76 80 82 85 86 82 82 88 91 91 78 62 70 70 83 71 65 64 59 52 54 54 54 53 55 62 56 84 95 84 82 81 98 100 63 60 57 62 57 59 64 64 63 62 63 60 63 61
96 96 98 97 92 79 75 79 82 85 84 80 82 89 91 90 82 71 66 86 80 68 63 69 58 68 56 60 72 77 86 92 98 99 99 98 99 98 100 79 71 77 72 64 61 54 49 55 60 64 63 64 67 66
96 97 98 94 88 78 75 79 82 86 84 83 86 90 81 73 75 69 82 81 74 72 69 69 69 65 70 85 93 92 96 95 97 97 97 98 100 100 94 90 85 82 88 80 64 60 58 60 60 63 65 66 67 63
96 98 95 95 86 76 77 82 84 86 85 89 86 80 82 78 83 76 68 69 70 68 70 77 69 73 67 84 93 90 94 98 98 96 92 97 99 81 78 77 86 89 86 73 72 76 71 65 62 59 62 58 61 60
98 96 95 90 83 77 80 85 88 86 87 86 84 82 79 84 71 78 80 82 88 81 85 89 85 81 82 94 95 88 88 87 94 93 88 92 94 77 68 77 86 91 76 68 67 64 57 56 56 56 56 57 60 63
97 94 89 86 77 79 85 91 90 85 81 87 81 82 74 77 82 82 86 92 89 77 86 92 87 88 91 94 93 95 88 87 82 87 88 99 78 72 73 72 82 76 68 67 67 65 60 57 53 52 52 53 53 58
89 87 80 76 79 81 88 88 90 91 90 83 76 79 77 84 97 82 75 76 83 78 81 85 85 93 97 91 89 83 77 88 85 82 95 77 72 72 72 71 84 88 78 70 67 65 65 66 60 61 58 55 55 58
80 73 74 78 81 81 89 91 91 89 80 65 80 99 90 83 86 80 74 72 72 77 80 85 90 89 89 85 83 77 83 77 71 83 79 64 69 69 70 68 68 66 60 61 63 64 65 70 69 67 64 60 59 60
76 79 82 84 84 82 91 91 91 84 72 68 78 93 88 70 78 82 80 82 78 76 82 93 90 77 74 82 76 77 80 72 67 64 63 63 73 77 75 68 65 61 59 61 63 63 66 66 69 72 70 71 68 60
80 81 79 87 87 91 92 92 88 81 77 68 74 65 61 74 78 80 80 66 66 64 62 57 62 60 69 71 66 60 64 64 58 59 51 65 77 75 79 74 71 67 72 69 78 75 73 72 78 75 65 64 64 60
83 72 83 80 86 90 93 84 79 80 71 83 72 75 74 78 77 73 64 63 60 49 45 53 54 60 74 64 63 71 66 53 51 53 57 73 86 85 83 80 76 77 82 84 82 80 88 91 91 81 73 79 71 62
80 80 78 77 76 89 85 86 87 76 86 71 71 70 84 82 78 65 64 65 56 52 55 51 58 55 58 55 61 65 62 54 58 72 78 80 85 84 79 82 80 83 87 83 91 86 82 90 94 96 94 90 87 83
71 73 80 81 72 64 72 86 79 68 64 77 79 85 84 79 79 75 64 66 61 59 56 60 59 67 54 58 67 67 73 65 64 78 81 80 81 79 77 75 77 79 81 80 84 91 96 91 96 82 90 92 96 97
89 91 92 91 75 63 65 72 80 80 77 81 87 85 84 73 67 69 68 71 59 56 59 57 56 56 51 65 74 72 75 80 80 71 76 76 78 73 77 67 64 75 62 71 77 83 79 84 84 81 69 87 91 92
82 86 84 80 77 75 79 74 80 84 84 88 84 82 70 67 66 64 62 63 58 55 51 48 45 50 58 72 64 62 69 81 80 76 73 66 60 57 58 58 71 66 74 74 78 84 80 89 93 94 76 83 92 74
70 90 91 87 84 86 89 74 66 62 81 82 87 76 69 64 64 64 62 58 54 47 48 49 54 60 64 74 70 71 74 82 80 68 70 63 44 48 53 64 58 71 73 60 61 84 83 73 64 76 76 66 74 76
87 92 90 89 88 95 89 78 83 77 78 76 75 75 76 71 66 74 63 56 55 55 53 58 70 70 70 78 74 75 72 67 56 53 52 44 48 49 48 53 51 53 62 58 62 72 70 77 62 54 59 56 62 51
83 84 89 89 90 94 78 82 86 84 83 86 77 73 70 66 66 62 60 51 55 64 60 77 64 63 63 69 59 62 61 53 54 55 51 42 43 53 50 49 50 52 58 54 50 54 68 72 68 47 48 47 45 43
94 89 93 100 90 95 91 76 84 83 76 69 75 71 70 70 65 61 57 51 58 60 61 63 55 49 46 51 53 57 64 48 45 47 50 44 48 48 45 46 49 56 49 41 44 47 59 56 47 44 44 44 50 48
97 76 94 78 68 75 68 75 80 77 69 68 73 76 68 65 70 61 53 50 60 59 57 51 46 47 49 46 45 46 49 50 49 41 49 44 40 36 40 39 44 49 47 44 39 42 47 44 41 43 44 51 74 45
90 66 66 69 66 66 78 81 76 70 64 64 70 76 70 67 60 53 54 56 54 54 50 46 40 36 38 48 47 42 45 50 46 38 41 44 42 41 40 40 45 46 46 45 41 41 42 40 38 39 41 42 43 42
73 71 70 64 70 64 66 68 68 71 70 72 75 78 63 54 50 54 46 46 41 48 45 40 39 33 34 40 38 40 46 44 43 41 41 40 38 37 44 42 44 81 46 42 40 40 39 39 39 40 39 39 42 42
68 67 68 65 58 57 72 65 64 75 79 81 72 68 57 64 57 49 49 38 39 38 38 38 40 39 42 44 40 37 38 35 36 41 41 32 32 33 40 39 35 37 38 29 82 63 45 40 39 38 41 40 42 38
56 57 59 53 54 53 56 68 65 73 78 71 64 74 77 60 59 50 38 37 37 32 30 28 32 33 36 40 40 40 37 32 27 29 33 31 28 26 34 37 34 31 30 30 32 40 74 47 54 39 40 36 36 38
50 55 52 45 37 40 51 65 64 73 65 75 79 68 59 59 52 48 38 34 31 30 30 29 31 30 33 36 38 39 37 36 37 34 28 25 24 28 28 32 30 30 30 30 30 31 32 34 35 37 36 36 37 40
56 54 48 48 44 57 76 76 59 62 76 77 70 72 62 76 65 56 50 37 35 32 37 29 27 30 30 28 30 32 52 28 36 38 38 32 30 31 31 29 29 28 30 29 30 30 33 35 34 36 36 39 39 39
56 47 46 39 40 60 66 65 63 68 74 78 79 71 68 67 66 64 55 47 36 27 29 28 28 32 34 32 32 34 50 33 44 59 60 57 53 46 31 30 30 31 32 32 30 30 33 35 34 39 40 40 40 40